Location: Arapaho Elementary School
(32.9607°N, 96.7625°W)
Time: 04:12:17
(UTC+00:00)

CZ-2C R/B - Pass Details

Date: 06 July 2022
Orbit: 783 x 871 km, 98.2° (Epoch: 14 August)

Event Time Altitude Azimuth Distance (km) Brightness Sun altitude
Rises 10:44:23 0° 159° (SSE) 3,403 5.7 -8.1°
Reaches altitude 10° 10:46:45 10° 157° (SSE) 2,480 5.0 -7.7°
Maximum altitude 10:52:14 69° 75° (ENE) 925 3.2 -6.7°
Drops below altitude 10° 10:57:49 10° 353° (N) 2,522 5.5 -5.7°
Sets 11:00:13 0° 351° (N) 3,464 6.2 -5.3°
